CW8097 Weather Reports


Display with metric or nautical units.
time (UTC)temp
F
wind
direction
speed
MPH
gust
MPH
rain 1hr
in
rain 24hr
in
rain mn
in
humidity
%
barometer
mb
20260505130203 45 235 1.0 2.0 0.00 0.04 0.04 80 1011.5
20260505123703 44 234 1.0 3.0 0.00 0.04 0.04 83 1011.9
20260505121703 42 214 0.0 0.0 0.00 0.04 0.04 84 1012.0
20260505120703 42 214 2.0 3.0 0.00 0.04 0.04 83 1012.1
20260505115203 41 202 0.0 0.0 0.00 0.04 0.04 86 1012.1
20260505114703 41 202 0.0 1.0 0.00 0.04 0.04 86 1012.1
20260505113703 40 202 1.0 2.0 0.00 0.04 0.04 85 1012.0
20260505113203 40 202 1.0 2.0 0.00 0.04 0.04 85 1011.8
20260505111204 41 202 0.0 0.0 0.00 0.04 0.04 85 1011.2
20260505110703 41 202 1.0 1.0 0.00 0.04 0.04 85 1011.2
20260505110203 41 202 1.0 1.0 0.00 0.04 0.04 84 1011.1
20260505101704 43 178 1.0 2.0 0.00 0.04 0.04 81 1010.5
20260505100203 43 178 2.0 3.0 0.00 0.04 0.04 77 1010.4
20260505094204 44 54 0.0 0.0 0.00 0.04 0.04 76 1009.2
20260505093703 44 54 0.0 0.0 0.00 0.04 0.04 78 1009.2
20260505091703 45 55 1.0 3.0 0.00 0.04 0.04 77 1009.4
20260505091203 45 76 2.0 3.0 0.00 0.04 0.04 75 1008.8
20260505090703 45 168 0.0 0.0 0.00 0.04 0.04 75 1010.0
20260505090203 45 168 0.0 0.0 0.00 0.04 0.04 76 1010.2
20260505085703 45 168 1.0 3.0 0.00 0.04 0.04 76 1010.7
20260505084703 45 121 0.0 3.0 0.01 0.04 0.04 73 1010.1
20260505084203 45 56 3.0 5.0 0.01 0.04 0.04 72 1008.4
20260505083704 45 60 4.0 6.0 0.02 0.04 0.04 70 1008.3
20260505082203 46 48 4.0 6.0 0.02 0.04 0.04 71 1008.0
20260505080203 46 307 0.0 2.0 0.03 0.04 0.04 71 1009.7
20260505075703 46 333 2.0 5.0 0.03 0.04 0.04 69 1009.2
20260505075203 46 46 3.0 5.0 0.04 0.04 0.04 67 1008.2
20260505074203 47 0 6.0 9.0 0.03 0.03 0.03 63 1008.2
20260505073204 48 350 5.0 10.0 0.02 0.02 0.02 60 1008.4
20260505072703 48 356 6.0 10.0 0.02 0.02 0.02 60 1008.1
20260505072203 48 4 9.0 14.0 0.02 0.02 0.02 60 1008.0
20260505070703 48 3 9.0 13.0 0.01 0.01 0.01 64 1007.6
20260505070203 48 355 7.0 14.0 0.01 0.01 0.01 64 1007.7
20260505065704 48 1 7.0 15.0 0.01 0.01 0.01 64 1007.6
20260505065203 49 13 9.0 16.0 0.00 0.00 0.00 60 1007.5
20260505064703 49 3 6.0 12.0 0.00 0.00 0.00 60 1008.0
20260505063203 50 351 7.0 14.0 0.00 0.00 0.00 51 1008.4
20260505062703 51 353 6.0 13.0 0.00 0.00 0.00 51 1008.2
20260505062203 51 334 7.0 13.0 0.00 0.00 0.00 49 1008.1
20260505061703 51 358 9.0 14.0 0.00 0.00 0.00 48 1007.5
20260505060703 51 5 12.0 18.0 0.00 0.00 0.00 46 1007.6
20260505055203 52 353 7.0 12.0 0.00 0.00 0.00 47 1007.9
20260505054203 52 8 7.0 12.0 0.00 0.00 0.00 47 1007.7
20260505053703 52 355 7.0 10.0 0.00 0.00 0.00 46 1007.4
20260505052703 53 346 7.0 12.0 0.00 0.00 0.00 45 1007.3
20260505052203 53 0 6.0 12.0 0.00 0.00 0.00 45 1007.2
20260505051703 53 5 7.0 12.0 0.00 0.00 0.00 45 1007.2
20260505051204 53 355 9.0 13.0 0.00 0.00 0.00 45 1007.1
20260505050703 53 3 8.0 12.0 0.00 0.00 0.00 45 1007.2
20260505041204 55 359 9.0 15.0 0.00 0.00 0.00 43 1006.9
20260505040703 55 0 7.0 13.0 0.00 0.00 0.00 42 1006.8
20260505035203 56 348 6.0 12.0 0.00 0.00 0.00 43 1006.5
20260505034203 56 330 5.0 10.0 0.00 0.00 0.00 44 1006.6
20260505033703 56 330 6.0 12.0 0.00 0.00 0.00 44 1006.6
20260505033203 56 317 6.0 12.0 0.00 0.00 0.00 44 1006.5
20260505032704 56 338 7.0 13.0 0.00 0.00 0.00 43 1006.5
20260505031703 57 334 9.0 15.0 0.00 0.00 0.00 42 1006.6
20260505023703 58 338 7.0 12.0 0.00 0.00 0.00 40 1005.8
20260505023203 58 342 7.0 12.0 0.00 0.00 0.00 41 1005.8
20260505021703 59 334 5.0 13.0 0.00 0.00 0.00 40 1005.3
20260505021203 59 339 7.0 12.0 0.00 0.00 0.00 38 1005.2
20260505015703 60 345 12.0 18.0 0.00 0.00 0.00 35 1004.6
20260505015203 61 351 5.0 12.0 0.00 0.00 0.00 35 1004.5
20260505014203 61 355 6.0 14.0 0.00 0.00 0.00 34 1004.4
20260505013203 62 335 8.0 14.0 0.00 0.00 0.00 33 1004.0
20260505011703 63 349 9.0 16.0 0.00 0.00 0.00 32 1003.5
20260505011203 64 352 11.0 16.0 0.00 0.00 0.00 32 1003.4
20260505010204 65 358 10.0 14.0 0.00 0.00 0.00 32 1003.3
20260505005703 66 349 12.0 17.0 0.00 0.00 0.00 31 1003.0
20260505005203 66 5 13.0 21.0 0.00 0.00 0.00 31 1002.9
20260505004204 67 336 10.0 20.0 0.00 0.00 0.00 32 1002.6
20260505002704 68 351 8.0 21.0 0.00 0.00 0.00 32 1002.5
20260505002204 69 355 9.0 20.0 0.00 0.00 0.00 32 1002.4
20260505001703 69 335 13.0 21.0 0.00 0.00 0.00 31 1002.4
20260504234704 72 344 11.0 17.0 0.00 0.00 0.00 30 1002.0
20260504233703 72 321 13.0 21.0 0.00 0.00 0.00 29 1001.8
20260504232704 73 342 9.0 18.0 0.00 0.00 0.00 29 1001.7
20260504231703 73 355 10.0 16.0 0.00 0.00 0.00 29 1001.4
20260504231204 73 333 12.0 23.0 0.00 0.00 0.00 29 1001.3
20260504230203 74 329 11.0 18.0 0.00 0.00 0.00 28 1001.3
20260504225704 75 2 12.0 17.0 0.00 0.00 0.00 29 1001.2
20260504224203 76 6 12.0 18.0 0.00 0.00 0.00 28 1001.0
20260504223703 76 359 12.0 20.0 0.00 0.00 0.00 28 1000.9
20260504222203 77 0 12.0 18.0 0.00 0.00 0.00 29 1000.6
20260504221704 77 339 10.0 17.0 0.00 0.00 0.00 32 1000.5
20260504220703 77 348 10.0 20.0 0.00 0.00 0.00 31 1000.4
20260504215704 78 353 9.0 17.0 0.00 0.00 0.00 31 1000.1
20260504214204 78 352 10.0 17.0 0.00 0.00 0.00 32 999.9
20260504213704 78 326 8.0 15.0 0.00 0.00 0.00 33 999.9
20260504212204 79 286 14.0 18.0 0.00 0.00 0.00 30 999.7
20260504211703 78 272 12.0 18.0 0.00 0.00 0.00 30 999.6
20260504211204 79 284 12.0 20.0 0.00 0.00 0.00 30 999.6
20260504205203 80 259 14.0 22.0 0.00 0.00 0.00 32 999.6
20260504204703 80 278 16.0 23.0 0.00 0.00 0.00 30 999.6
20260504204203 79 248 13.0 22.0 0.00 0.00 0.00 30 999.6
20260504203203 80 249 15.0 18.0 0.00 0.00 0.00 31 999.6
20260504202203 80 258 13.0 20.0 0.00 0.00 0.00 32 999.8
20260504201704 80 269 17.0 24.0 0.00 0.00 0.00 32 999.8
20260504200704 80 269 15.0 26.0 0.00 0.00 0.00 32 999.9
20260504200203 80 268 14.0 28.0 0.00 0.00 0.00 32 999.9
20260504195204 80 260 15.0 23.0 0.00 0.00 0.00 35 999.9
20260504194704 79 264 15.0 21.0 0.00 0.00 0.00 35 1000.0
20260504194204 79 233 14.0 20.0 0.00 0.00 0.00 35 999.9
20260504193704 78 264 13.0 20.0 0.00 0.00 0.00 36 1000.1
20260504193204 79 235 17.0 22.0 0.00 0.00 0.00 35 1000.0
20260504192203 78 264 13.0 17.0 0.00 0.00 0.00 37 1000.1
20260504191704 77 242 11.0 15.0 0.00 0.00 0.00 40 1000.3
20260504190203 78 254 13.0 16.0 0.00 0.00 0.00 38 1000.4
20260504185703 77 252 10.0 18.0 0.00 0.00 0.00 37 1000.5
20260504185204 78 240 14.0 23.0 0.00 0.00 0.00 37 1000.4
20260504183203 78 232 16.0 21.0 0.00 0.00 0.00 37 1000.6
20260504182703 77 272 13.0 20.0 0.00 0.00 0.00 35 1000.6
20260504182203 78 240 16.0 23.0 0.00 0.00 0.00 35 1000.5
20260504180204 78 226 14.0 20.0 0.00 0.00 0.00 35 1000.6
20260504175703 77 241 13.0 20.0 0.00 0.00 0.00 36 1000.6
20260504174703 78 272 13.0 20.0 0.00 0.00 0.00 36 1000.6
20260504174203 77 234 14.0 20.0 0.00 0.00 0.00 39 1000.6
20260504172204 77 245 11.0 17.0 0.00 0.00 0.00 39 1000.8
20260504171704 77 249 10.0 18.0 0.00 0.00 0.00 43 1000.9
20260504150702 68 199 8.0 12.0 0.00 0.00 0.00 53 1001.9
20260504140703 62 188 9.0 12.0 0.00 0.00 0.00 57 1002.4